Timeline UpdatesTrip UpdatesNews PostsPvt Posts♥♥Travel TipsAdmin PostsConv PostsFollowed PostsChat RequestsBlog PostsPNR Posts

Disclaimer
Search
 
 
Thu Dec 18, 2014 11:16:58 ISTHomeTrainsΣChainsAtlasPNRForumGalleryNewsFAQTripsMembersLoginFeedback
No Recent News for this Train
Other Trains in the News **new
Latest...
Tr.No.17406 Adilabad -Tirupati Express is cancelled o­n 27.04.2014.
Sat Apr 26, 2014 (03:22PM)
⇐ Return Journey: Train# 17405

17406/Krishna Express

Time-Table HAS CHANGED.
Sep 03 2014 (11:11AM)
Change Departure Station:
Change Arrival Station:
Post a Train Travel TipPost a Train Travel Tip **new
Post a Comment/Question/Picture/VideoPost a Comment/Question/Picture/Video
Inaugural Run
Wed Oct 02, 1974
Pantry/Catering
✕ NO Pantry Car
✓ Catering Avbl
Loco/Rake Reversals
SC/Secunderabad Junction (10); MUE/Mudkhed Junction (4);
RSA - Rake Sharing
17405/17406/17409/17410 has RSA.
Rake/Coach Composition
Loco-SLR-GS-D6-D5-D4-D3-D2-D1-S2-S1-C1-B1-GS-GS-GS-GS-GS-SLR
Loco
ADB - SC: KZJ WDG-3A. SC - TPTY: LGD WAP4/7.
News    PNR    Forum    Time-Table    Availability    Fare Chart    Map    Arr/Dep History    Trips    Gallery    ΣChains    X/O    Timeline    
Travel Time: 7h 53m    21 halts    Distance: 375 km    Avg Speed: 47 km/hr
Type: Mail/Express
Zone: SCR/South Central
Departs @ 13:32 (Avg 31m late)
Platform# ???
SMTWTFS
Peddavadlapudi/PVD 
Arrives @ 21:25 (Avg 4m late)
Platform# 1
SMTWTFS
Tirupati Main/TPTY 

21 halts. 57 intermediate Stations between Peddavadlapudi and Tirupati Main

Show ALL intermediate Stations  Show Old Time-Table

#TrkCodeStation NameX/OArrivesAvgDepartsAvgHaltPFDay#KmSpeedElevZoneAddress
1|--|ADBAdilabad (3)  -20:45+211-773.380248mSCRAdilabad, Telangana
2|--|KNVTKinwat (2)  21:03 21:19+1621:04 21:20+171m11-728.163319mSCRKinwat, Maharashtra
3|--|BHBKBodhadi Bujrug  21:44 21:34+2021:45 21:35+201m--1-713.475357mSCRKinwat, Maharashtra
4|--|SHSKSahasrakund  22:14 21:59+2822:15 22:00+291m--1-683.349402mSCRNanded, Maharashtra
5|--|HEMHimayatnagar  22:29 22:19+2522:30 22:20+251m--1-667.737398mSCRNanded, Maharashtra
6|--|BOKRBhokar  23:24 23:19+623:25 23:20+81m11-631.628460mSCRBhokar, Maharashtra
7|--|MUEMudkhed Junction (4)O↵¶00:05+000:15+710m22-610.434378mSCRMudkhed, Maharashtra
8|--|UMRIUmri (1)X  00:49+200:50+71m12-590.965381mSCRHuzur Sahib Nanded, Maharashtra
9|--|DABDharmabad (2)X  01:17+1701:18+211m12-561.535354mSCRDegaon, Maharashtra
10|--|BSXBasar (2)X  01:35+1801:37+212m12-551.653358mSCRDist Adilabad, Telangana
11|--|NZBNizamabad (3)  02:10+2002:15+245m12-522.371384mSCRNizamabad, Telangana
12|--|KMCKamareddi (3)  03:00 02:59+2803:01+281 2m12-470.467526mSCRNizamabad Dist., Telangana
13|--|AKEAkanapet (1)O  03:24+2703:25+271m12-444.792566mSCRMedak District., Telangana
14|--|MZLMirzapalli (1)  03:32+2803:33+281m12-433.943539mSCRMedak Dist., Telangana
15|=-|BMOBolarum (3)X  04:55+604:56+61m12-375.227597mSCRSecunderabad, Telangana
16/-=|MJFMalkajgiri (3)X  05:19+005:20+21m22-365.08535mSCRSecunderabad, Telangana
17|--|SCSecunderabad Junction (10)X05:45+1206:05+1220m62-361.643539mSCRSecunderabad 500003, Telangana
18/==/MLYMoula Ali (2)X  06:13+2506:14+261m12-355.957520mSCRSecunderabad, Telangana
19/==/CHZCharlapalli (2)  06:21+3206:22+331m22-349.276523mSCRRangareddy Dist., Telangana
20/==/BGBhongir (3)X  06:49+3906:50+391m22-315.297455mSCRNalgonda Dist., Telangana
21/==/RAGRaigir (2)X  06:54-06:55-1m22-308.873415mSCRNalgonda, Telangana
22/==/ALERAler (2)X  07:08+4207:09+431m22-293.072366mSCRNalgonda Dist., Telangana
23/==/PBPPembarti (2)  07:17+4407:18+461m22-283.441382mSCRWarangal Dist., Telangana
24/==/ZNJangaon (2)  07:26+4507:27+471m22-277.975380mSCRWarangal Dist., Telangana
25/==/RGPRaghunathpalli (2)  07:36+5107:37+511m22-266.684357mSCRWarangal Dist., Telangana
26/==/GNPGhanpur (2)  07:49+5407:50+561m22-249.843344mSCRWarangal Dist. / Enq Ph : 08711 220231, Telangana
27/==/KZJKazipet Junction (3)X  08:18+4508:20+502m22-230.051292mSCRWarangal Dist., Telangana
28/==/WLWarangal (3)  08:32+5708:34+582m12-219.874271mSCRWarangal., Telangana
29/==/NKDNekonda (2)  08:58+1:0208:59+1:021m12-190.177236mSCRWarangal Dist., Telangana
30/==/KDMKesamudram (2)X  09:11+1:0209:12+1:021m12-174.681223mSCRWarangal Dist., Telangana
31/==/MABDMahbubabad (2)  09:23+1:0909:24+1:101m12-159.7107200mSCRWarangal Dist., Telangana
32/==/GLAGarla (2)X  09:35-09:36-1m12-140.018156mSCRKhammam Dist., Telangana
33/==/DKJDornakal Junction (3)  09:52+1:0309:54+1:032m22-135.392153mSCRWarangal District, Telangana
34/==/KMTKhammam (2)X  10:09+5110:11+1:012m12-112.288118mSCRKhammam 507001, Telangana
35/==/BKLBona Kalu (2)  10:30+1:2210:31+1:221m12-84.48597mSCRKhammam Dist., Telangana
36/==/MDRMadhira (2)  10:43+1:1410:44+1:141m12-67.48461mSCRKhammam Dist., Telangana
37/==/YPErrupalem (2)X  10:55+1:1110:56+1:131m--2-52.01857mSCRKhammam Dist., Telangana
38/==/KIKondapalli (2)XO  12:18+3212:20+342m22-27.42735mSCRKondapalli, Andhra Pradesh
39/==/BZAVijayawada Junction (10)X  12:55+2813:15+2520m102-11.94524mSCRVijayawada 520001, Andhra Pradesh
40/==/PVDPeddavadlapudi (3)»  13:31+3013:32+311m--20.06520mSCRKL University to NH 5, Andhra Pradesh
41/==/DIGDuggirala (3)X  13:41+3613:42+371m--29.73616mSCRDuggirala, Andhra Pradesh
42/==/TELTenali Junction (5)  13:58+3214:00+332m3219.47716mSCRTel: 08644-227834, Andhra Pradesh
43/==/TSRTsunduru (3)  14:09+3814:10+391m--230.95712mSCRTsunduru, Andhra Pradesh
44/==/NDONidubrolu (3)  14:21+4014:22+421m--241.4699mSCRNidubrolu, Andhra Pradesh
45/==/BPPBapatla (3)X  14:40+4314:41+441m--262.08210mSCRBapatla, Andhra Pradesh
46/==/CLXChirala (4)  14:52+4714:53+481m--277.1598mSCRChirala, Andhra Pradesh
47/==/VTMVetapalem (3)X  15:01+5015:02+511m--284.9758mSCRVetapalem, Andhra Pradesh
48/==/CJMChinnaganjam (3)  15:12+5215:13+541m--297.4779mSCRChinna Ganjam, Andhra Pradesh
49/==/ANBAmmanabrolu (3)X  15:24+5415:25+551m--2111.54316mSCRAmmanabrolu, Andhra Pradesh
50/==/OGLOngole (3)  15:46+4815:48+502m32126.47012mSCROngole, Andhra Pradesh
51/==/TNRTanguturu (3)  16:04+5816:05+1:001m12145.07210mSCRTanguturu, Andhra Pradesh
52/==/SKMSingarayakonda (2)X  16:13+5616:14+571m22154.69926mSCRSingarayakonda, Andhra Pradesh
53/==/KVZKavali (4)X  16:37+4016:39+402m22192.48221mSCRKavali, Andhra Pradesh
54/==/BTTRBitragunta (2)X  16:51-16:52-1m22208.84515mSCRBitragunta, Andhra Pradesh
55/==/NLRNellore (4)  17:38+1117:40+112m32243.24821mSCRNellore, Andhra Pradesh
56/==/VDEVedayapalem (2)XO  17:49+017:50+01m22250.41927mSCRNellore, Andhra Pradesh
57/==/GDRGudur Junction (3)  19:08 19:28+919:10 19:30+102m32281.66819mSCRGudur, Andhra Pradesh
58/==/VDDVendodu (2)X  19:27 19:47+2819:28 19:48+291m--2300.89955mSCRNellore, Andhra Pradesh
59/==/VKIVenkatagiri (3)  19:40 19:58+3519:41 20:00+341 2m22317.48277mSCRNellore District, Andhra Pradesh
60/==/KHTSri Kalahasti (2)X  20:01 20:18+3620:02 20:20+351 2m12341.87068mSCRChittoor District, Andhra Pradesh
61/==/RURenigunta Junction (5)O  20:35 20:40+4220:40 20:45+415m--2365.015113mSCRChittoor District, Andhra Pradesh
62/==/TPTYTirupati Main (5)•  21:25+4-12374.9-150mSCRChittoor Distt, Andhra Pradesh
Scroll to Top
Scroll to Bottom


Go to Mobile site